Regional Weather Roundup
Issued by NWS

Home | Current Version | Previous Version | Graphics & Text | Print | Product List | Glossary On
Versions: 1 2 3 4 5 6 7 8 9 10 11 12 13 14 15 16 17 18 19 20 21 22 23 24 25 26 27 28 29 30 31 32 33 34 35 36 37 38 39 40 41 42 43 44 45 46 47 48 49 50
777
ASUS43 KTOP 230359
RWRKS

WEATHER ROUNDUP FOR KANSAS
NATIONAL WEATHER SERVICE GOODLAND KS
1100 PM CDT MON MAY 22 2017

NOTE:  "FAIR" INDICATES FEW OR NO CLOUDS BELOW 12,000 FEET WITH NO
SIGNIFICANT WEATHER AND/OR OBSTRUCTIONS TO VISIBILITY.

KSZ001>006-013>018-027>032-041>047-230500-
NORTHWEST KANSAS

CITY           SKY/WX    TMP DP  RH WIND       PRES   REMARKS
GOODLAND       CLOUDY    49  46  90 NW13      30.11R
HAYS           CLOUDY    59  47  64 N23G36    29.98R
HILL CITY      CLOUDY    54  51  90 N9        30.02S
RUSSELL        CLOUDY    61  49  64 NE9       29.92R
$$

KSZ061>065-074>080-084>089-230500-
SOUTHWEST KANSAS

CITY           SKY/WX    TMP DP  RH WIND       PRES   REMARKS
DODGE CITY     LGT RAIN  55  48  77 N16       30.03R
ELKHART          N/A     52  39  61 MISG        N/A
GARDEN CITY    CLOUDY    52  46  80 N14       30.03R
GREAT BEND     CLOUDY    58  54  86 SW5       29.94R
LIBERAL        LGT RAIN  56  50  80 N22       30.06R
$$

KSZ066>073-081>083-090>101-230500-
SOUTHEAST KANSAS

CITY           SKY/WX    TMP DP  RH WIND       PRES   REMARKS
CHANUTE        CLOUDY    63  56  78 CALM      29.91S
COFFEYVILLE    CLOUDY    65  58  78 W7        29.92R
HUTCHINSON     FOG       51  51 100 CALM      29.92S VSB 1/4
MEDICINE LODGE   N/A     56  55  97 SW3       29.95R
NEWTON         FOG       54  54 100 N3        29.94S VSB 3/4
PARSONS        CLOUDY    62  59  90 CALM      29.93R
WICHITA INTL   PTCLDY    53  53 100 S5        29.93R
WICHITA JABRA  CLEAR     56  56 100 W3        29.93R
WINFIELD       PTCLDY    56  56 100 SW5       29.94R FOG
$$

KSZ007>012-019>026-033>040-048>060-102>105-230500-
NORTHEAST KANSAS

CITY           SKY/WX    TMP DP  RH WIND       PRES   REMARKS
CONCORDIA      CLOUDY    55  53  93 SW9       29.93S
EMPORIA        PTCLDY    58  57  97 N6        29.93S
LAWRENCE       FOG       55  55 100 CALM      29.93F VSB 1/4
MANHATTAN      CLOUDY    59  57  93 SW8       29.89F
OLATHE IND     CLOUDY    57  56  96 N6        29.93S
OLATHE EXE     CLOUDY    57  57 100 SE6       29.92F
SALINA         RAIN      60  55  83 E8        29.96R
TOPEKA BILLARD PTCLDY    58  58 100 S6        29.90F
TOPEKA FORBES  PTCLDY    57  56  96 S6        29.91F
$$




USA.gov is the U.S. government's official web portal to all federal, state and local government web resources and services.